Location: Baix
(44.7118°N, 4.7648°E)
Time: 00:36:20
(UTC+00:00)

Vanguard 3 - Pass Details

Date: 28 November 2020
Orbit: 508 x 3262 km, 33.3° (Epoch: 19 January)

Event Time Altitude Azimuth Distance (km) Brightness Sun altitude
Rises 01:37:04 0° 256° (WSW) 3,392 - -54.8°
Reaches altitude 10° 01:40:02 10° 236° (WSW) 2,781 - -54.4°
Maximum altitude 01:44:30 18° 195° (SSW) 2,713 - -53.7°
Drops below altitude 10° 01:50:38 10° 157° (SSE) 4,005 - -52.7°
Exits shadow 01:52:52 - 150° (SSE) 4,623 11.0 -52.4°
Sets 01:56:16 0° 142° (SE) 5,599 11.5 -51.8°
